Weather History for Belgrade Nikola Tesla, Serbia

Change the Weather History Date:

Wednesday, October 10, 2012

  Actual Average Record
Temperature  
Mean Temperature 54 °F -  
Max Temperature 65 °F 58 °F 82 °F (1997)
Min Temperature 43 °F 42 °F 35 °F (2010)
Degree Days  
Heating Degree Days 11    
Growing Degree Days 4 (Base 50)    
Moisture  
Dew Point 40 °F    
Average Humidity 54    
Maximum Humidity 87    
Minimum Humidity 27    
Precipitation  
Precipitation 0.00 in - - ()
Sea Level Pressure  
Sea Level Pressure 29.91 in    
Wind  
Wind Speed 4 mph ()    
Max Wind Speed 8 mph    
Max Gust Speed -    
Visibility 7.0 miles    
Events      
Averages and records for this station are not official NWS values.
T = Trace of Precipitation, MM = Missing Value Source: Averaged Metar Reports

Daily Weather History Graph

Daily Weather History Graph

Search for Another Location

Airport:

Trip Planner

Search our weather history database for the weather conditions in past years. The results will help you decide how hot, cold, wet, or windy it might be!

Date:

Astronomy

Oct. 10, 2012 Rise Set
Actual Time 6:48 AM CEST 6:02 PM CEST
Civil Twilight 6:18 AM CEST 6:31 PM CEST
Nautical Twilight 5:44 AM CEST 7:05 PM CEST
Astronomical Twilight 5:10 AM CEST 7:39 PM CEST
Moon 12:52 AM CEST (10/10) 3:06 PM CEST (10/10)
Length of Visible Light 12h 12m
Length of Day
11h 14m
Waning Crescent, 30% of the Moon is Illuminated
Oct 10
Waning Crescent
Oct 15
New
Oct 22
First Quarter
Oct 29
Full
Nov 7
Last Quarter

Hourly Weather History & Observations

Time (CEST) Temp. Windchill Dew Point Humidity Pressure Visibility Wind Dir Wind Speed Gust Speed Precip Events Conditions
12:00 AM 55.4 °F - 39.2 °F 54% 29.86 in - Variable 2.3 mph - N/A   Clear
12:30 AM 51.8 °F - 39.2 °F 62% 29.86 in - NNE 2.3 mph - N/A   Clear
1:00 AM 51.8 °F - 39.2 °F 62% 29.86 in - Calm Calm - N/A   Clear
1:30 AM 53.6 °F - 39.2 °F 58% 29.86 in - East 2.3 mph - N/A   Clear
2:00 AM 52 °F - 40 °F 55% 29.88 in 12 mi Calm Calm - -   Partly Cloudy
2:00 AM 51.8 °F - 41.0 °F 67% 29.86 in - West 1.2 mph - N/A   Clear
2:30 AM 53.6 °F - 39.2 °F 58% 29.86 in - West 2.3 mph - N/A   Clear
3:00 AM 53.6 °F - 39.2 °F 58% 29.86 in - South 1.2 mph - N/A   Clear
3:30 AM 51.8 °F - 42.8 °F 71% 29.86 in - NNW 4.6 mph - N/A   Clear
4:00 AM 51.8 °F - 41.0 °F 67% 29.86 in - Variable 1.2 mph - N/A   Clear
4:30 AM 50.0 °F - 41.0 °F 71% 29.89 in - WSW 4.6 mph - N/A   Clear
5:00 AM 49 °F - 41 °F 65% 29.90 in 12 mi WSW 4.5 mph - -   Partly Cloudy
5:00 AM 50.0 °F - 41.0 °F 71% 29.89 in - SW 3.5 mph - N/A   Clear
5:30 AM 48.2 °F - 37.4 °F 66% 29.89 in - WSW 6.9 mph - N/A   Clear
6:00 AM 46.4 °F 43.5 °F 39.2 °F 76% 29.89 in - WSW 5.8 mph - N/A   Clear
6:30 AM 46.4 °F 43.5 °F 41.0 °F 81% 29.89 in - WSW 5.8 mph - N/A   Clear
7:00 AM 46.4 °F 43.5 °F 41.0 °F 81% 29.92 in - WSW 5.8 mph - N/A   Clear
7:30 AM 46.4 °F 43.5 °F 41.0 °F 81% 29.92 in - SW 5.8 mph - N/A   Clear
8:00 AM 47 °F - 42 °F 78% 29.95 in 5 mi WSW 4.5 mph - -   Mist
8:00 AM 46.4 °F 44.3 °F 42.8 °F 87% 29.95 in 5.0 mi WSW 4.6 mph - N/A   Unknown
8:30 AM 48.2 °F - 42.8 °F 82% 29.95 in 5.0 mi WSW 5.8 mph - N/A   Unknown
9:00 AM 50.0 °F - 42.8 °F 76% 29.95 in 5.0 mi WSW 3.5 mph - N/A   Unknown
9:30 AM 53.6 °F - 39.2 °F 58% 29.95 in 5.0 mi West 3.5 mph - N/A   Unknown
10:00 AM 57.2 °F - 39.2 °F 51% 29.95 in 5.6 mi West 4.6 mph - N/A   Unknown
10:30 AM 59.0 °F - 39.2 °F 48% 29.95 in - WNW 5.8 mph - N/A   Clear
11:00 AM 60 °F - 40 °F 35% 29.96 in 6 mi North 4.5 mph - -   Scattered Clouds
11:00 AM 60.8 °F - 39.2 °F 45% 29.95 in - North 5.8 mph - N/A   Clear
11:30 AM 60.8 °F - 39.2 °F 45% 29.95 in - NNW 5.8 mph - N/A   Clear
12:00 PM 64.4 °F - 39.2 °F 40% 29.95 in - Variable 3.5 mph - N/A   Clear
12:30 PM 64.4 °F - 41.0 °F 42% 29.95 in - Variable 4.6 mph - N/A   Clear
1:00 PM 64.4 °F - 41.0 °F 42% 29.95 in - North 6.9 mph - N/A   Clear
1:30 PM 64.4 °F - 39.2 °F 40% 29.92 in - West 3.5 mph - N/A   Clear
2:00 PM 66 °F - 40 °F 27% 29.93 in 9 mi North 2.2 mph - -   Scattered Clouds
2:00 PM 66.2 °F - 39.2 °F 37% 29.92 in - Variable 3.5 mph - N/A   Clear
2:30 PM 66.2 °F - 39.2 °F 37% 29.92 in - ENE 4.6 mph - N/A   Clear
3:00 PM 66.2 °F - 39.2 °F 37% 29.92 in - NNE 5.8 mph - N/A   Clear
3:30 PM 64.4 °F - 41.0 °F 42% 29.92 in - North 6.9 mph - N/A   Clear
4:00 PM 64.4 °F - 39.2 °F 40% 29.92 in - NNE 8.1 mph - N/A   Clear
4:30 PM 64.4 °F - 39.2 °F 40% 29.89 in - NNE 6.9 mph - N/A   Clear
5:00 PM 64 °F - 39 °F 28% 29.90 in 9 mi NE 4.5 mph - -   Mostly Cloudy
5:00 PM 64.4 °F - 39.2 °F 40% 29.89 in - NE 5.8 mph - N/A   Clear
5:30 PM 64.4 °F - 39.2 °F 40% 29.89 in - North 5.8 mph - N/A   Clear
6:00 PM 62.6 °F - 39.2 °F 42% 29.89 in - NNE 4.6 mph - N/A   Clear
6:30 PM 62.6 °F - 39.2 °F 42% 29.89 in - NNE 4.6 mph - N/A   Clear
7:00 PM 60.8 °F - 39.2 °F 45% 29.89 in - ENE 4.6 mph - N/A   Clear
7:30 PM 60.8 °F - 41.0 °F 48% 29.89 in 6.2 mi NE 5.8 mph - N/A   Scattered Clouds
8:00 PM 59 °F - 41 °F 40% 29.91 in 9 mi NE 4.5 mph - -   Partly Cloudy
8:00 PM 59.0 °F - 41.0 °F 51% 29.89 in 6.2 mi NE 4.6 mph - N/A   Scattered Clouds
8:30 PM 59.0 °F - 42.8 °F 55% 29.89 in - ENE 3.5 mph - N/A   Clear
9:00 PM 59.0 °F - 41.0 °F 51% 29.89 in - NE 4.6 mph - N/A   Clear
9:30 PM 57.2 °F - 41.0 °F 55% 29.89 in - ENE 5.8 mph - N/A   Clear
10:00 PM 57.2 °F - 42.8 °F 59% 29.89 in 6.2 mi NNE 5.8 mph - N/A   Partly Cloudy
10:30 PM 57.2 °F - 41.0 °F 55% 29.89 in 6.2 mi NE 5.8 mph - N/A   Partly Cloudy
11:00 PM 57 °F - 41 °F 43% 29.91 in 9 mi North 6.7 mph - -   Scattered Clouds
11:00 PM 57.2 °F - 41.0 °F 55% 29.89 in 6.2 mi North 8.1 mph - N/A   Partly Cloudy
11:30 PM 55.4 °F - 41.0 °F 58% 29.89 in 6.2 mi North 8.1 mph - N/A   Partly Cloudy